Preview of NWS' New Version of Forecast
This preview is not operational and should not be used for support decisions.

Regional Weather Roundup (RWR)

Issued by National Weather Service (NWS)

                            
000
ASUS46 KSEW 231510
RWRWA 

WASHINGTON REGIONAL WEATHER ROUNDUP
NATIONAL WEATHER SERVICE SEATTLE WA
700 AM PST SAT FEB 23 2019

NOTE:"FAIR" INDICATES FEW OR NO CLOUDS BELOW 12,000 FEET WITH NO 
SIGNIFICANT WEATHER AND/OR OBSTRUCTIONS TO VISIBILITY.

WAZ507-509-555>559-231600-
SEATTLE, TACOMA, EVERETT, AND VICINITY
  
CITY           SKY/WX    TMP DP  RH WIND       PRES   REMARKS
EVERETT        CLOUDY    36  34  92 SE7       30.07R                  
BOEING FIELD   MOCLDY    37  32  82 SE7       30.10R                  
RENTON         PTCLDY    37  33  85 CALM      30.10R                  
SEATAC AIRPORT MOCLDY    37  31  78 S8        30.08S                  
JBLM-MCCHORD   CLOUDY    30  30 100 S5        30.09S                  
PUYALLUP       CLOUDY    34  32  93 CALM      30.09S                  
BREMERTON      CLOUDY    33  32  96 MISG        N/A                   
JBLM-FT LEWIS  CLOUDY    32  32 100 SE7       30.09R                  
TACOMA NARROWS MOCLDY    35  32  88 S7        30.09R                  
$$
 
WAZ001-503-506-510-514-515-231600-
NORTH INTERIOR
  
CITY           SKY/WX    TMP DP  RH WIND       PRES   REMARKS
BELLINGHAM     LGT RAIN  38  33  82 S6        30.07R                  
FRIDAY HARBOR  CLOUDY    39  36  89 SE12      30.07S                  
EASTSOUND      CLOUDY    37  37 100 SE7       30.05S                  
PORT ANGELES   PTCLDY    32  27  81 SW6       30.04S                  
EDIZ HOOK      FAIR      36  31  82 SW3       30.06R                  
PORT TOWNSEND  CLOUDY    34  34 100 SE6       30.06S                  
NAS WHIDBEY    MOCLDY    39  34  82 E9        30.11R                  
ARLINGTON      MOCLDY    36  34  92 E7        30.09S                  
BURLINGTON     CLOUDY    37  34  87 SE5       30.08S                  
$$
 
WAZ020-022-039-040-504-511-512-231600-
SOUTHWEST INTERIOR
  
CITY           SKY/WX    TMP DP  RH WIND       PRES   REMARKS
SHELTON        CLOUDY    34  31  88 W3        30.07R                  
OLYMPIA        CLOUDY    33  32  96 SW8       30.11R                  
CHEHALIS       CLOUDY    34  34 100 S6G13     30.12R FOG              
KELSO          CLOUDY    33  32  96 CALM      30.15R                  
VANCOUVER      CLOUDY    38  37  97 CALM      30.14S FOG              
SCAPPOOSE, OR  FOG       36  34  92 CALM      30.15R VSB 1/2          
PORTLAND, OR   CLOUDY    39  37  92 CALM      30.15S                  
$$
 
WAZ021-516-517-231600-
WASHINGTON COAST
  
CITY           SKY/WX    TMP DP  RH WIND       PRES   REMARKS
FORKS          LGT RAIN  34  34 100 SE3       30.05R                  
HOQUIAM        PTCLDY    36  35  96 VRB7      30.08S                  
ASTORIA, OR    MOCLDY    34  34 100 SE7       30.10F                  
$$
 
WAZ019-023-024-040-567>569-231600-
CASCADE MOUNTAINS AND COLUMBIA GORGE
  
CITY           SKY/WX    TMP DP  RH WIND       PRES   REMARKS
STAMPEDE PASS  FOG       26  22  84 VRB3      29.94R VSB 3/4          
TROUTDALE, OR  CLOUDY    39  36  89 S3        30.15S                  
HOOD RIVER, OR MIX PCPN  32  32 100 CALM      30.12S                  
THE DALLES, OR CLEAR     33  29  85 CALM      30.13R                  
$$

WAZ026-027-041>044-520-521-231600-
EAST SLOPES
  
CITY           SKY/WX    TMP DP  RH WIND       PRES   REMARKS
OMAK           CLOUDY    23  20  88 CALM      30.09R                  
WENATCHEE      CLOUDY    19  16  88 E3        30.10R FOG              
ELLENSBURG     MOCLDY    11   4  73 N3        30.05R                  
YAKIMA         CLEAR     10   5  80 W7        30.10R HAZE             
SUNNYSIDE ARPT SUNNY     14  13  92 CALM      30.10                   
YAKIMA TC      FAIR      15  12  88 CALM      30.06R                  
$$

WAZ028-034-035-231600-
COLUMBIA BASIN
  
CITY           SKY/WX    TMP DP  RH WIND       PRES   REMARKS
EPHRATA        CLEAR      9   5  84 NE7       30.08R FOG              
MOSES LAKE     FOG       14  10  84 N5        30.10R VSB 1/2          
PASCO          CLEAR     15  12  88 NW6       30.13R                  
RICHLAND ARPT  SUNNY     17  15  95 CALM      30.14R FOG              
HERMISTON, OR  PTCLDY    22  20  92 CALM      30.10R                  
$$

WAZ036>038-231600-
NORTHEAST WASHINGTON
  
CITY           SKY/WX    TMP DP  RH WIND       PRES   REMARKS
SPOKANE GEIGER FOG       17  14  88 SE9       30.02R VSB 1/8          
SPOKANE FELTS  CLOUDY    21  19  92 CALM      30.06R FOG              
FAIRCHILD AFB  FOG       11  11  98 CALM      30.01R VSB 1/8          
COEURDALENE,ID CLOUDY    23  21  92 SW3       30.03R                  
DEER PARK      FOG       18  16  92 N3        30.03R VSB<1/4          
$$

WAZ029>033-231600-
SOUTHEAST WASHINGTON
  
CITY           SKY/WX    TMP DP  RH WIND       PRES   REMARKS
PULLMAN        CLOUDY    27  25  92 SW7       30.03R                  
LEWISTON, ID   FOG       25  23  92 SE5       30.07R VSB 1/4          
WALLA WALLA    MOCLDY    31  25  78 S8        30.08R                  
PENDLETON, OR  PTCLDY    31  26  82 S6        30.06R                  
$$